| time (UTC) | temp F | wind direction | speed knots | gust knots | rain 1hr in | rain 24hr in | rain mn in | humidity % | barometer mb |
| 20260506233058 | 75 | 265 | 11.3 | 16.5 | 0.00 | 0.00 | 0.00 | 50 | 1016.7 |
| 20260506231558 | 75 | 256 | 10.4 | 16.5 | 0.00 | 0.00 | 0.00 | 50 | 1016.7 |
| 20260506230059 | 77 | 219 | 6.1 | 13.0 | 0.00 | 0.00 | 0.00 | 47 | 1017.0 |
| 20260506224553 | 77 | 263 | 7.0 | 15.6 | 0.00 | 0.00 | 0.00 | 48 | 1016.9 |
| 20260506223100 | 77 | 244 | 8.7 | 16.5 | 0.00 | 0.00 | 0.00 | 49 | 1017.1 |
| 20260506221555 | 75 | 257 | 10.4 | 16.5 | 0.00 | 0.00 | 0.00 | 47 | 1017.2 |
| 20260506220056 | 74 | 294 | 9.6 | 13.9 | 0.00 | 0.00 | 0.00 | 50 | 1017.4 |
| 20260506214604 | 74 | 272 | 9.6 | 13.9 | 0.00 | 0.00 | 0.00 | 50 | 1017.6 |
| 20260506213056 | 75 | 262 | 7.8 | 13.0 | 0.00 | 0.00 | 0.00 | 49 | 1017.7 |
| 20260506211603 | 74 | 292 | 8.7 | 13.9 | 0.00 | 0.00 | 0.00 | 50 | 1017.8 |
| 20260506210056 | 73 | 257 | 8.7 | 14.8 | 0.00 | 0.00 | 0.00 | 50 | 1017.8 |
| 20260506204600 | 72 | 250 | 8.7 | 13.9 | 0.00 | 0.00 | 0.00 | 50 | 1017.7 |
| 20260506203059 | 72 | 279 | 9.6 | 15.6 | 0.00 | 0.00 | 0.00 | 48 | 1017.7 |
| 20260506201601 | 72 | 253 | 9.6 | 14.8 | 0.00 | 0.00 | 0.00 | 51 | 1017.8 |
| 20260506200103 | 72 | 244 | 8.7 | 13.9 | 0.00 | 0.00 | 0.00 | 50 | 1017.9 |
| 20260506194606 | 71 | 273 | 7.8 | 13.0 | 0.00 | 0.00 | 0.00 | 51 | 1018.0 |
| 20260506193059 | 71 | 207 | 8.7 | 13.0 | 0.00 | 0.00 | 0.00 | 51 | 1018.1 |
| 20260506191609 | 71 | 279 | 6.1 | 16.5 | 0.00 | 0.00 | 0.00 | 52 | 1018.1 |
| 20260506190059 | 69 | 265 | 7.8 | 13.0 | 0.00 | 0.00 | 0.00 | 54 | 1018.2 |
| 20260506184554 | 69 | 287 | 6.1 | 11.3 | 0.00 | 0.00 | 0.00 | 53 | 1018.3 |
| 20260506183108 | 69 | 260 | 4.3 | 8.7 | 0.00 | 0.00 | 0.00 | 52 | 1018.5 |
| 20260506181602 | 68 | 295 | 3.5 | 7.8 | 0.00 | 0.00 | 0.00 | 54 | 1018.6 |
| 20260506180115 | 67 | 249 | 3.5 | 6.1 | 0.00 | 0.00 | 0.00 | 52 | 1018.7 |
| 20260506174554 | 66 | 219 | 1.7 | 7.0 | 0.00 | 0.00 | 0.00 | 56 | 1018.7 |
| 20260506173126 | 65 | 221 | 3.5 | 7.8 | 0.00 | 0.00 | 0.00 | 55 | 1018.6 |
| 20260506171553 | 63 | 269 | 2.6 | 7.0 | 0.00 | 0.00 | 0.00 | 56 | 1018.8 |
| 20260506170053 | 65 | 0 | 0.9 | 2.6 | 0.00 | 0.00 | 0.00 | 54 | 1018.8 |
| 20260506164555 | 66 | 124 | 0.0 | 2.6 | 0.00 | 0.00 | 0.00 | 57 | 1018.8 |
| 20260506163100 | 63 | 0 | 0.0 | 3.5 | 0.00 | 0.00 | 0.00 | 59 | 1018.7 |
| 20260506161556 | 61 | 0 | 0.0 | 2.6 | 0.00 | 0.00 | 0.00 | 61 | 1018.9 |
| 20260506160053 | 57 | 275 | 1.7 | 4.3 | 0.00 | 0.00 | 0.00 | 66 | 1019.0 |
| 20260506154557 | 56 | 310 | 0.9 | 3.5 | 0.00 | 0.00 | 0.00 | 68 | 1019.1 |
| 20260506153052 | 55 | 325 | 1.7 | 3.5 | 0.00 | 0.00 | 0.00 | 70 | 1019.1 |
| 20260506151554 | 56 | 81 | 0.0 | 1.7 | 0.00 | 0.00 | 0.00 | 67 | 1019.1 |
| 20260506150058 | 56 | 81 | 0.0 | 1.7 | 0.00 | 0.00 | 0.00 | 73 | 1019.1 |
| 20260506144605 | 54 | 81 | 0.9 | 3.5 | 0.00 | 0.00 | 0.00 | 77 | 1019.1 |
| 20260506143055 | 52 | 80 | 1.7 | 2.6 | 0.00 | 0.00 | 0.00 | 82 | 1019.2 |
| 20260506141555 | 51 | 79 | 2.6 | 4.3 | 0.00 | 0.00 | 0.00 | 86 | 1019.1 |
| 20260506140052 | 48 | 78 | 3.5 | 6.1 | 0.00 | 0.00 | 0.00 | 92 | 1019.1 |
| 20260506134555 | 45 | 78 | 0.9 | 2.6 | 0.00 | 0.00 | 0.00 | 94 | 1019.1 |
| 20260506133101 | 44 | 76 | 3.5 | 6.1 | 0.00 | 0.00 | 0.00 | 93 | 1018.9 |
| 20260506131553 | 44 | 81 | 2.6 | 4.3 | 0.00 | 0.00 | 0.00 | 93 | 1019.0 |
| 20260506130053 | 43 | 0 | 0.0 | 0.0 | 0.00 | 0.00 | 0.00 | 93 | 1018.9 |
| 20260506124552 | 43 | 0 | 0.0 | 4.3 | 0.00 | 0.00 | 0.00 | 92 | 1018.8 |
| 20260506123056 | 44 | 48 | 1.7 | 6.1 | 0.00 | 0.00 | 0.00 | 92 | 1018.8 |
| 20260506121556 | 45 | 105 | 3.5 | 7.0 | 0.00 | 0.00 | 0.00 | 92 | 1018.8 |
| 20260506120055 | 45 | 0 | 0.0 | 1.7 | 0.00 | 0.00 | 0.00 | 92 | 1018.8 |
| 20260506114559 | 45 | 0 | 0.9 | 5.2 | 0.00 | 0.00 | 0.00 | 92 | 1018.6 |
| 20260506113057 | 46 | 106 | 2.6 | 6.1 | 0.00 | 0.00 | 0.00 | 91 | 1018.5 |
| 20260506111600 | 46 | 104 | 1.7 | 6.1 | 0.00 | 0.00 | 0.00 | 91 | 1018.5 |
| 20260506110052 | 47 | 104 | 2.6 | 6.1 | 0.00 | 0.00 | 0.00 | 91 | 1018.5 |
| 20260506104601 | 46 | 92 | 2.6 | 5.2 | 0.00 | 0.00 | 0.00 | 91 | 1018.3 |
| 20260506103100 | 46 | 0 | 0.0 | 0.0 | 0.00 | 0.00 | 0.00 | 91 | 1018.4 |
| 20260506101552 | 46 | 0 | 0.9 | 3.5 | 0.00 | 0.00 | 0.00 | 90 | 1018.4 |
| 20260506094611 | 48 | 123 | 1.7 | 6.1 | 0.00 | 0.00 | 0.00 | 89 | 1018.3 |
| 20260506093052 | 48 | 115 | 4.3 | 7.0 | 0.00 | 0.00 | 0.00 | 88 | 1018.4 |
| 20260506091553 | 49 | 194 | 0.0 | 2.6 | 0.00 | 0.00 | 0.00 | 88 | 1018.5 |
| 20260506090052 | 48 | 0 | 0.0 | 2.6 | 0.00 | 0.00 | 0.00 | 88 | 1018.7 |
| 20260506084556 | 49 | 195 | 0.0 | 3.5 | 0.00 | 0.00 | 0.00 | 87 | 1018.8 |
| 20260506083057 | 49 | 194 | 0.9 | 3.5 | 0.00 | 0.00 | 0.00 | 88 | 1018.9 |
| 20260506081552 | 49 | 126 | 1.7 | 3.5 | 0.00 | 0.00 | 0.00 | 87 | 1018.7 |
| 20260506080106 | 49 | 0 | 0.0 | 0.0 | 0.00 | 0.00 | 0.00 | 88 | 1018.8 |
| 20260506073106 | 48 | 88 | 1.7 | 3.5 | 0.00 | 0.00 | 0.00 | 90 | 1018.6 |
| 20260506071552 | 47 | 87 | 0.9 | 3.5 | 0.00 | 0.00 | 0.00 | 90 | 1018.7 |
| 20260506061552 | 48 | 175 | 0.9 | 3.5 | 0.00 | 0.00 | 0.00 | 88 | 1018.0 |
| 20260506044553 | 51 | 246 | 4.3 | 8.7 | 0.00 | 0.00 | 0.00 | 81 | 1017.1 |
| 20260506043053 | 52 | 220 | 4.3 | 8.7 | 0.00 | 0.00 | 0.00 | 79 | 1017.0 |
| 20260506041556 | 52 | 267 | 6.1 | 8.7 | 0.00 | 0.00 | 0.00 | 77 | 1016.9 |
| 20260506040056 | 53 | 260 | 7.0 | 10.4 | 0.00 | 0.00 | 0.00 | 75 | 1016.6 |
| 20260506034556 | 55 | 318 | 2.6 | 4.3 | 0.00 | 0.00 | 0.00 | 63 | 1016.2 |
| 20260506033106 | 56 | 327 | 3.5 | 7.0 | 0.00 | 0.00 | 0.00 | 62 | 1016.0 |
| 20260506031553 | 56 | 38 | 0.9 | 5.2 | 0.00 | 0.00 | 0.00 | 60 | 1015.9 |
| 20260506030100 | 57 | 0 | 2.6 | 7.8 | 0.00 | 0.00 | 0.00 | 60 | 1015.6 |
| 20260506024608 | 56 | 269 | 1.7 | 4.3 | 0.00 | 0.00 | 0.00 | 60 | 1015.5 |
| 20260506023104 | 58 | 0 | 3.5 | 7.8 | 0.00 | 0.00 | 0.00 | 58 | 1015.1 |
| 20260506021558 | 58 | 263 | 4.3 | 10.4 | 0.00 | 0.00 | 0.00 | 58 | 1015.1 |
| 20260506020052 | 59 | 292 | 1.7 | 9.6 | 0.00 | 0.00 | 0.00 | 57 | 1015.0 |
| 20260506014553 | 60 | 282 | 4.3 | 8.7 | 0.00 | 0.00 | 0.00 | 57 | 1014.8 |
| 20260506013101 | 62 | 261 | 1.7 | 7.0 | 0.00 | 0.00 | 0.00 | 53 | 1014.7 |
| 20260506011620 | 62 | 255 | 0.0 | 6.1 | 0.00 | 0.00 | 0.00 | 54 | 1014.6 |
| 20260506010059 | 62 | 250 | 0.0 | 5.2 | 0.00 | 0.00 | 0.00 | 55 | 1014.7 |
| 20260506004555 | 61 | 352 | 0.9 | 7.0 | 0.00 | 0.00 | 0.00 | 55 | 1014.7 |
| 20260506003056 | 60 | 34 | 4.3 | 9.6 | 0.00 | 0.00 | 0.00 | 56 | 1014.5 |
| 20260506001552 | 59 | 306 | 4.3 | 16.5 | 0.00 | 0.00 | 0.00 | 65 | 1014.4 |
| 20260506000058 | 61 | 250 | 9.6 | 15.6 | 0.00 | 0.00 | 0.00 | 61 | 1014.2 |
| 20260505234554 | 63 | 261 | 6.1 | 13.9 | 0.00 | 0.00 | 0.00 | 61 | 1014.1 |